Simultaneous Nadir Overpasses (SNOs) Predictions

Prediction of SNOs between METOP-B and NOAA-19 Satellite Orbit:

Table of predicted SNOs for the next 14.0 days since TLE Epoch: 8/26/2016
Index Date (METOP-B) Time (METOP-B) Lat,Lon (METOP-B) SZA (METOP-B ) Date (NOAA-19) Time (NOAA-19) Lat,Lon (NOAA-19) SZA (NOAA-19 ) Distance(km) Time Diff (sec)
1 08/29/2016 03:45:47 76.29, 125.05 67.00 08/29/2016 03:44:34 76.29, 125.15 67.00 2.82 73
2 08/29/2016 04:36:29 -76.30, -67.62 112.99 08/29/2016 04:35:39 -76.28, -67.57 113.01 2.64 50
3 08/29/2016 05:27:09 76.28, 99.65 67.01 08/29/2016 05:26:36 76.29, 99.64 67.02 1.33 33
4 08/29/2016 06:17:51 -76.28, -93.02 112.98 08/29/2016 06:17:41 -76.28, -93.09 112.98 1.89 10
5 08/29/2016 07:08:31 76.26, 74.25 67.02 08/29/2016 07:08:37 76.25, 74.29 67.01 1.93 6
6 08/29/2016 07:59:13 -76.26,-118.41 112.97 08/29/2016 07:59:42 -76.23,-118.43 113.00 3.35 29
7 08/29/2016 08:49:53 76.24, 48.85 67.03 08/29/2016 08:50:39 76.25, 48.78 67.03 1.95 46
8 08/29/2016 09:40:35 -76.25,-143.81 112.96 08/29/2016 09:41:44 -76.24,-143.94 112.97 3.70 69
9 08/29/2016 10:31:25 75.77, 21.89 66.57 08/29/2016 10:32:31 75.80, 24.88 66.63 81.84 66
10 09/08/2016 19:41:46 -76.52, 66.89 108.84 09/08/2016 19:40:34 -76.53, 65.47 108.84 36.62 72
11 09/08/2016 20:32:30 76.32,-126.53 70.97 09/08/2016 20:31:25 76.31,-126.41 70.96 3.22 65
12 09/08/2016 21:23:12 -76.32, 40.83 109.01 09/08/2016 21:22:31 -76.31, 40.81 109.03 1.21 41
13 09/08/2016 22:13:52 76.30,-151.93 70.98 09/08/2016 22:13:27 76.31,-151.92 70.99 1.55 25
14 09/08/2016 23:04:34 -76.31, 15.43 109.01 09/08/2016 23:04:33 -76.32, 15.29 109.00 3.62 1
15 09/08/2016 23:55:14 76.28,-177.33 70.99 09/08/2016 23:55:28 76.27,-177.27 70.98 1.99 14
16 09/09/2016 00:45:56 -76.29, -9.97 109.00 09/09/2016 00:46:34 -76.28, -10.05 109.01 2.82 38
17 09/09/2016 01:36:36 76.27, 157.28 71.00 09/09/2016 01:37:30 76.27, 157.22 71.01 1.71 54
18 09/09/2016 02:27:21 -76.14, -35.85 109.13 09/09/2016 02:28:34 -76.19, -35.24 109.07 17.29 73




NCC Satellite Simultaneous Nadir Overpasses (SNOs) Prediction Service
